Alyeska Resort
Max's Hourly Weather Roundup
ALYESKA_MAX 4/16/2014
Click Here for Graph

        DATE  TIME   Air  Wind  Wind  Wind  BATT   Rel
                    Temp   Spd   Dir  Gust  Volt  Hum%
                      F   MPH   AVG   MPH   AVG   AVG

   4/16/2014 16:00    31    10    73    19 13.74    89
   4/16/2014 15:00    33     8    61    15 13.66    83
   4/16/2014 14:00    32     7    66    18 13.74    86
   4/16/2014 13:00    31     9    45    13 13.75    88
   4/16/2014 12:00    31     8    56    15 13.73    88
   4/16/2014 11:00    31     7    58    19 13.63    88
   4/16/2014 10:00    30     9    61    22 13.68    90
   4/16/2014 09:00    30    10    60    19 13.74    89
   4/16/2014 08:00    30     9    64    20 12.98    89
   4/16/2014 07:00    29     6    73    14 12.80    92
   4/16/2014 06:00    29     5    88    14 12.81    94
   4/16/2014 05:00    29     5    81    13 12.82    95
   4/16/2014 04:00    29     4    87    15 12.84    96
   4/16/2014 03:00    29     4   134    11 12.86    95
   4/16/2014 02:00    28     3   169    13 12.88    98
   4/16/2014 01:00    28     3   127    16 12.91    97
   4/15/2014 24:00    29     8    98    18 12.94    94
   4/15/2014 23:00    29     7    91    19 13.00    93
   4/15/2014 22:00    29     6   119    17 13.12    94
   4/15/2014 21:00    29     4   154    19 13.52    96
   4/15/2014 20:00    30     5   118    16 13.89    96
   4/15/2014 19:00    30    10   130    22 13.85    92
   4/15/2014 18:00    31     8   128    19 13.81    95
   4/15/2014 17:00    32     6   145    12 13.79    94


Click Here for Graph